Weather History for Blair, NE

Change the Weather History Date:

Saturday, November 12, 2011

  Actual Average (KOMA) Record (KOMA)
Temperature  
Mean Temperature 45 °F 41 °F  
Max Temperature 55 °F 51 °F 74 °F (2005)
Min Temperature 35 °F 31 °F 1 °F (1911)
Degree Days  
Heating Degree Days 20 24  
Month to date heating degree days 256  
Since 1 July heating degree days 741  
Cooling Degree Days 0 0  
Month to date cooling degree days 0  
Year to date cooling degree days 1112  
Moisture  
Dew Point 34 °F    
Average Humidity 69    
Maximum Humidity 93    
Minimum Humidity 47    
Precipitation  
Precipitation 0.00 in 0.06 in 1.97 in (2010)
Month to date precipitation 0.71  
Year to date precipitation 28.65  
Snow  
Snow 0.00 in 0.00 in - ()
Month to date snowfall 0.4  
Since 1 July snowfall 0.7  
Snow Depth -    
Sea Level Pressure  
Sea Level Pressure 29.53 in    
Wind  
Wind Speed 10 mph (South)    
Max Wind Speed 22 mph    
Max Gust Speed 26 mph    
Visibility 10 miles    
Events      
T = Trace of Precipitation, MM = Missing Value Source: NWS Daily Summary

Daily Weather History Graph

Daily Weather History Graph

Search for Another Location

Airport:

Trip Planner

Search our weather history database for the weather conditions in past years. The results will help you decide how hot, cold, wet, or windy it might be!

Date:

Astronomy

Nov. 12, 2011 Rise Set
Actual Time 7:09 AM CST 5:07 PM CST
Civil Twilight 6:39 AM CST 5:37 PM CST
Nautical Twilight 6:06 AM CST 6:10 PM CST
Astronomical Twilight 5:33 AM CST 6:42 PM CST
Moon 6:23 PM CST (11/12) 8:53 AM CST (11/12)
Length of Visible Light 10h 57m
Length of Day
9h 58m
Full, 97% of the Moon is Illuminated
Nov 12
Full
Nov 18
Last Quarter
Nov 25
New
Dec 2
First Quarter
Dec 10
Full

Hourly Weather History & Observations

Time (CST) Temp. Windchill Dew Point Humidity Pressure Visibility Wind Dir Wind Speed Gust Speed Precip Events Conditions
12:15 AM 44.6 °F 39.2 °F 32.0 °F 61% 29.67 in 10.0 mi South 10.4 mph - N/A   Clear
12:35 AM 44.6 °F 40.2 °F 32.0 °F 61% 29.67 in 10.0 mi South 8.1 mph - N/A   Clear
12:55 AM 44.6 °F 40.7 °F 32.0 °F 61% 29.66 in 10.0 mi South 6.9 mph - N/A   Clear
1:15 AM 42.8 °F 39.3 °F 32.0 °F 66% 29.66 in 10.0 mi South 5.8 mph - N/A   Clear
1:35 AM 42.8 °F 39.3 °F 32.0 °F 66% 29.66 in 10.0 mi SSW 5.8 mph - N/A   Clear
1:55 AM 41.0 °F 36.4 °F 30.2 °F 65% 29.66 in 10.0 mi South 6.9 mph - N/A   Clear
2:15 AM 41.0 °F 38.0 °F 32.0 °F 70% 29.65 in 10.0 mi SSE 4.6 mph - N/A   Clear
2:35 AM 39.2 °F 37.0 °F 32.0 °F 75% 29.64 in 10.0 mi South 3.5 mph - N/A   Clear
2:55 AM 37.4 °F 33.8 °F 30.2 °F 75% 29.63 in 10.0 mi South 4.6 mph - N/A   Clear
3:15 AM 37.4 °F 32.8 °F 30.2 °F 75% 29.62 in 10.0 mi SSE 5.8 mph - N/A   Clear
3:35 AM 37.4 °F 31.4 °F 30.2 °F 75% 29.62 in 10.0 mi South 8.1 mph - N/A   Clear
3:55 AM 37.4 °F 30.3 °F 32.0 °F 81% 29.61 in 10.0 mi SSE 10.4 mph - N/A   Clear
4:15 AM 37.4 °F 32.1 °F 32.0 °F 81% 29.61 in 10.0 mi South 6.9 mph - N/A   Clear
4:35 AM 37.4 °F 31.4 °F 32.0 °F 81% 29.60 in 10.0 mi SSE 8.1 mph - N/A   Clear
4:55 AM 37.4 °F 33.8 °F 32.0 °F 81% 29.59 in 10.0 mi SSE 4.6 mph - N/A   Clear
5:15 AM 37.4 °F 32.1 °F 32.0 °F 81% 29.59 in 10.0 mi SSE 6.9 mph - N/A   Clear
5:35 AM 35.6 °F 30.7 °F 32.0 °F 87% 29.59 in 10.0 mi South 5.8 mph - N/A   Clear
5:55 AM 37.4 °F 31.4 °F 32.0 °F 81% 29.58 in 10.0 mi SSE 8.1 mph - N/A   Clear
6:15 AM 35.6 °F 31.7 °F 32.0 °F 87% 29.59 in 10.0 mi South 4.6 mph - N/A   Clear
6:35 AM 37.4 °F 31.4 °F 33.8 °F 87% 29.57 in 10.0 mi SE 8.1 mph - N/A   Clear
6:55 AM 37.4 °F 30.8 °F 33.8 °F 87% 29.56 in 10.0 mi SE 9.2 mph - N/A   Clear
7:15 AM 37.4 °F 30.8 °F 33.8 °F 87% 29.57 in 10.0 mi SSE 9.2 mph - N/A   Clear
7:35 AM 37.4 °F 31.4 °F 33.8 °F 87% 29.57 in 10.0 mi SSE 8.1 mph - N/A   Clear
7:55 AM 37.4 °F 30.8 °F 35.6 °F 93% 29.57 in 10.0 mi SSE 9.2 mph - N/A   Clear
8:15 AM 39.2 °F 34.2 °F 35.6 °F 87% 29.57 in 10.0 mi SSE 6.9 mph - N/A   Clear
8:35 AM 41.0 °F 34.3 °F 35.6 °F 81% 29.56 in 10.0 mi SSE 11.5 mph - N/A   Clear
8:55 AM 41.0 °F 33.1 °F 35.6 °F 81% 29.57 in 10.0 mi SSE 15.0 mph - N/A   Clear
9:15 AM 42.8 °F 36.6 °F 35.6 °F 76% 29.54 in 10.0 mi SSE 11.5 mph 16.1 mph N/A   Clear
9:35 AM 42.8 °F 37.0 °F 37.4 °F 81% 29.54 in 10.0 mi SSE 10.4 mph 17.3 mph N/A   Clear
9:55 AM 44.6 °F 39.7 °F 37.4 °F 76% 29.54 in 10.0 mi SSE 9.2 mph - N/A   Clear
10:15 AM 44.6 °F 39.7 °F 37.4 °F 76% 29.54 in 10.0 mi South 9.2 mph - N/A   Clear
10:35 AM 46.4 °F 41.1 °F 37.4 °F 71% 29.52 in 10.0 mi SSE 11.5 mph - N/A   Clear
10:55 AM 46.4 °F 40.4 °F 35.6 °F 66% 29.54 in 10.0 mi South 13.8 mph 18.4 mph N/A   Clear
11:15 AM 48.2 °F - 37.4 °F 66% 29.52 in 10.0 mi South 11.5 mph - N/A   Clear
11:35 AM 48.2 °F - 37.4 °F 66% 29.52 in 10.0 mi South 11.5 mph - N/A   Clear
11:55 AM 50.0 °F - 37.4 °F 62% 29.50 in 10.0 mi South 15.0 mph - N/A   Clear
12:15 PM 50.0 °F - 37.4 °F 62% 29.50 in 10.0 mi South 15.0 mph - N/A   Clear
12:55 PM 51.8 °F - 35.6 °F 54% 29.46 in 10.0 mi South 15.0 mph - N/A   Clear
1:15 PM 51.8 °F - 37.4 °F 58% 29.46 in 10.0 mi South 17.3 mph - N/A   Clear
1:35 PM 51.8 °F - 35.6 °F 54% 29.44 in 10.0 mi South 13.8 mph - N/A   Clear
1:55 PM 51.8 °F - 37.4 °F 58% 29.43 in 10.0 mi South 12.7 mph - N/A   Clear
2:15 PM 51.8 °F - 35.6 °F 54% 29.42 in 10.0 mi South 18.4 mph - N/A   Clear
2:35 PM 53.6 °F - 35.6 °F 51% 29.41 in 10.0 mi SSE 21.9 mph 25.3 mph N/A   Clear
2:55 PM 51.8 °F - 35.6 °F 54% 29.40 in 10.0 mi SSE 18.4 mph 26.5 mph N/A   Clear
3:15 PM 53.6 °F - 35.6 °F 51% 29.42 in 10.0 mi South 18.4 mph 21.9 mph N/A   Clear
3:35 PM 53.6 °F - 35.6 °F 51% 29.41 in 10.0 mi South 16.1 mph - N/A   Clear
3:55 PM 55.4 °F - 35.6 °F 47% 29.40 in 10.0 mi South 18.4 mph - N/A   Clear
4:15 PM 55.4 °F - 35.6 °F 47% 29.40 in 10.0 mi South 18.4 mph 24.2 mph N/A   Clear
4:35 PM 53.6 °F - 35.6 °F 51% 29.40 in 10.0 mi South 16.1 mph - N/A   Clear
4:55 PM 51.8 °F - 35.6 °F 54% 29.40 in 10.0 mi SSW 11.5 mph - N/A   Clear
5:15 PM 50.0 °F - 35.6 °F 58% 29.39 in 10.0 mi South 10.4 mph - N/A   Clear
5:35 PM 50.0 °F - 35.6 °F 58% 29.39 in 10.0 mi South 11.5 mph - N/A   Clear
5:55 PM 48.2 °F - 35.6 °F 62% 29.39 in 10.0 mi South 12.7 mph - N/A   Clear
6:15 PM 48.2 °F - 35.6 °F 62% 29.40 in 10.0 mi SSW 10.4 mph - N/A   Clear
6:35 PM 44.6 °F 38.8 °F 35.6 °F 71% 29.39 in 10.0 mi South 11.5 mph - N/A   Clear
6:55 PM 48.2 °F - 35.6 °F 62% 29.39 in 10.0 mi South 13.8 mph - N/A   Clear
7:15 PM 48.2 °F - 35.6 °F 62% 29.39 in 10.0 mi South 11.5 mph - N/A   Clear
7:35 PM 48.2 °F - 35.6 °F 62% 29.38 in 10.0 mi South 10.4 mph - N/A   Clear
7:55 PM 48.2 °F - 35.6 °F 62% 29.38 in 10.0 mi South 13.8 mph - N/A   Clear
8:15 PM 48.2 °F - 35.6 °F 62% 29.37 in 10.0 mi SSW 12.7 mph - N/A   Clear
8:35 PM 50.0 °F - 35.6 °F 58% 29.37 in 10.0 mi SSW 13.8 mph - N/A   Clear
8:55 PM 50.0 °F - 37.4 °F 62% 29.38 in 10.0 mi SSW 12.7 mph - N/A   Clear
9:15 PM 50.0 °F - 35.6 °F 58% 29.38 in 10.0 mi SSW 11.5 mph - N/A   Clear
9:35 PM 48.2 °F - 35.6 °F 62% 29.38 in 10.0 mi SSW 10.4 mph - N/A   Clear
9:55 PM 48.2 °F - 37.4 °F 66% 29.37 in 10.0 mi SSW 10.4 mph - N/A   Clear
10:15 PM 48.2 °F - 35.6 °F 62% 29.36 in 10.0 mi SW 10.4 mph - N/A   Clear
10:35 PM 48.2 °F - 35.6 °F 62% 29.35 in 10.0 mi SSW 9.2 mph - N/A   Clear
10:55 PM 46.4 °F 41.9 °F 35.6 °F 66% 29.34 in 10.0 mi SSW 9.2 mph - N/A   Clear
11:15 PM 46.4 °F 43.5 °F 35.6 °F 66% 29.32 in 10.0 mi South 5.8 mph - N/A   Clear
11:35 PM 44.6 °F 39.7 °F 35.6 °F 71% 29.32 in 10.0 mi SSW 9.2 mph - N/A   Clear
11:55 PM 44.6 °F 40.7 °F 35.6 °F 71% 29.31 in 10.0 mi South 6.9 mph - N/A   Clear